This demonstration page uses our WeatherBlox Daily Observations layout. Learn more.

Left ArrowRight Arrow

Hourly Observations for February 12, 2019

Temp ( °F °C ) Dew Point ( °F °C ) Humidity (%) Winds ( mph kmh ) Pressure ( in mb ) Visibility ( mi km ) Precip ( " mm )
12:05 am 00:05 Cloudy with Light Rain 39 3.9 37 2.8 93 93 E 8 13 29.9 1013 3 4.82802 0.02 0.508
12:53 am 00:53 Cloudy with Light Rain 40 4.4 37 2.8 89 89 E 9 15 29.85 1011 5 8.0467 0.03 0.762
1:53 am 01:53 Cloudy with Light Rain 40 4.4 38 3.3 93 93 E 7 11 29.81 1010 5 8.0467 0.05 1.27
2:53 am 02:53 Cloudy with Light Rain 40 4.4 38 3.3 93 93 E 5 7 29.78 1009 9 14.48406 0.03 0.762
3:53 am 03:53 Cloudy with Light Rain 41 5 39 3.9 93 93 E 6 9 29.73 1007 7 11.26538 0.1 2.54
4:53 am 04:53 Cloudy with Rain 42 5.6 40 4.4 92 92 E 3 6 29.7 1006 5 8.0467 0.09 2.286
5:10 am 05:10 Cloudy with Rain 42 5.6 40 4.4 92 92 N N/A 29.71 1006 2.5 4.02335 0.06 1.524
5:18 am 05:18 Cloudy with Rain 42 5.6 40 4.4 92 92 N N/A 29.71 1006 3 4.82802 0.09 2.286
5:53 am 05:53 Cloudy with Rain 43 6.1 41 5 93 93 N N/A 29.69 1005 3 4.82802 0.18 4.572
5:57 am 05:57 Cloudy with Rain 43 6.1 41 5 93 93 ENE 5 7 29.69 1005 2.5 4.02335 0.02 0.508
6:36 am 06:36 Cloudy with Light Rain 44 6.7 42 5.6 93 93 E 5 7 29.67 1005 4 6.43736 0.07 1.778
6:53 am 06:53 Cloudy with Light Rain 43 6.1 42 5.6 97 97 E 3 6 29.66 1004 3 4.82802 0.08 2.032
7:19 am 07:19 Cloudy with Light Rain 45 7.2 43 6.1 93 93 E 3 6 29.66 1004 5 8.0467 0.03 0.762
7:53 am 07:53 Cloudy with Light Rain 47 8.3 45 7.2 93 93 ESE 5 7 29.62 1003 4 6.43736 0.05 1.27
8:43 am 08:43 Cloudy with Light Rain 50 10 48 8.9 93 93 VRB 5 7 29.61 1003 9 14.48406 0.01 0.254
8:53 am 08:53 Cloudy with Light Rain 51 10.6 49 9.4 92 92 VRB 3 6 29.6 1003 10 16.0934 0.02 0.508
9:18 am 09:18 Cloudy with Light Rain 52 11.1 50 10 93 93 S 3 6 29.61 1003 10 16.0934 0.01 0.254
9:45 am 09:45 Cloudy 52 11.1 51 10.6 97 97 VRB 5 7 29.62 1003 10 16.0934 0.01 0.254
9:53 am 09:53 Cloudy 52 11.1 51 10.6 97 97 WSW 6 9 29.62 1003 10 16.0934 0.01 0.254
10:24 am 10:24 Cloudy with Light Rain 51 10.6 49 9.4 92 92 WSW 7 11 29.62 1003 4 6.43736 0.01 0.254
10:53 am 10:53 Cloudy 51 10.6 49 9.4 92 92 WSW 3 6 29.62 1003 8 12.87472 0.01 0.254
11:41 am 11:41 Cloudy with Light Rain 51 10.6 50 10 96 96 WSW 6 9 29.63 1003 3 4.82802 N/A
11:53 am 11:53 Cloudy with Light Rain 51 10.6 50 10 96 96 WSW 6 9 29.62 1003 4 6.43736 N/A
11:58 am 11:58 Cloudy with Light Rain 51 10.6 50 10 96 96 SW 5 7 29.63 1003 2.5 4.02335 0.01 0.254
12:07 pm 12:07 Cloudy with Light Rain 51 10.6 49 9.4 92 92 WSW 7 11 29.62 1003 2.5 4.02335 0.01 0.254
12:15 pm 12:15 Cloudy with Light Rain 51 10.6 49 9.4 92 92 WSW 8 13 29.62 1003 4 6.43736 0.01 0.254
12:35 pm 12:35 Cloudy with Light Rain 51 10.6 49 9.4 92 92 WSW 5 7 29.62 1003 7 11.26538 0.01 0.254
12:49 pm 12:49 Cloudy with Light Rain 52 11 50 10 94 94 SW 5 7 29.62 1003 4 6.43736 0.02 0.508
12:53 pm 12:53 Cloudy with Light Rain 51 10.6 49 9.4 92 92 SW 8 13 29.61 1003 4 6.43736 0.02 0.508
1:51 pm 13:51 Cloudy 52 11 48 9 88 88 SW 7 11 29.58 1002 10 16.0934 N/A
1:53 pm 13:53 Cloudy 52 11.1 49 9.4 89 89 WSW 7 11 29.57 1002 10 16.0934 N/A
2:05 pm 14:05 Cloudy 52 11.1 49 9.4 89 89 WSW 9 15 29.56 1001 10 16.0934 N/A
2:31 pm 14:31 Cloudy with Rain 50 10 48 8.9 93 93 W 15 24 29.58 1002 1.75 2.816345 0.02 0.508
2:42 pm 14:42 Cloudy with Light Rain 50 10 46 7.8 86 86 W 20 31 29.59 1002 3 4.82802 0.04 1.016
2:53 pm 14:53 Cloudy with Light Rain 49 9.4 46 7.8 90 90 W 15 24 29.59 1002 4 6.43736 0.04 1.016
3:02 pm 15:02 Cloudy with Rain 48 8.9 46 7.8 93 93 W 12 19 29.61 1003 2.5 4.02335 0.02 0.508
3:05 pm 15:05 Cloudy with Rain 48 8.9 46 7.8 93 93 W 15 24 29.61 1003 3 4.82802 0.03 0.762
3:26 pm 15:26 Cloudy with Rain 47 8.3 44 6.7 90 90 W 15 24 29.61 1003 4 6.43736 0.06 1.524
3:49 pm 15:49 Cloudy 46 8 41 5 82 82 W 21 33 29.63 1003 10 16.0934 0.06 1.524
3:53 pm 15:53 Cloudy 46 7.8 40 4.4 79 79 W 20 31 29.63 1003 10 16.0934 0.06 1.524
4:53 pm 16:53 Cloudy 40 4.4 34 1.1 79 79 W 15 24 29.7 1006 10 16.0934 N/A
5:53 pm 17:53 Cloudy with Light Rain 37 2.8 33 0.6 86 86 W 23 37 29.75 1007 9 14.48406 0.01 0.254
6:53 pm 18:53 Cloudy 36 2.2 29 -1.7 76 76 W 22 35 29.8 1009 10 16.0934 N/A
7:53 pm 19:53 Cloudy with Light Rain 35 1.7 28 -2.2 76 76 W 16 26 29.83 1010 10 16.0934 N/A
8:39 pm 20:39 Cloudy 34 1.1 25 -3.9 70 70 W 17 28 29.87 1012 10 16.0934 N/A
8:53 pm 20:53 Cloudy 34 1.1 24 -4.4 67 67 WSW 24 39 29.85 1011 10 16.0934 N/A
9:53 pm 21:53 Windy with Snow Likely 33 0.6 25 -3.9 72 72 W 20 31 29.85 1011 9 14.48406 N/A
10:23 pm 22:23 Cloudy with Light Snow 33 0.6 25 -3.9 72 72 WSW 18 30 29.89 1012 8 12.87472 N/A
10:32 pm 22:32 Windy with Snow Likely 33 0.6 25 -3.9 72 72 WSW 22 35 29.89 1012 7 11.26538 N/A
10:53 pm 22:53 Cloudy with Light Snow 32 undefined 24 -4.4 73 73 W 17 28 29.88 1012 7 11.26538 N/A
11:49 pm 23:49 Windy with Snow Likely 32 undefined 27 -3 80 80 WSW 20 31 29.91 1013 2.5 4.02335 N/A
11:51 pm 23:51 Cloudy with Light Snow 30 -1 27 -3 86 86 W 17 28 29.92 1013 0.75 1.207005 N/A
11:53 pm 23:53 Cloudy with Snow 30 -1.1 27 -2.8 88 88 W 17 28 29.89 1012 0.5 0.80467 0.01 0.254

Powered by AerisWeather